TimeEDT,TemperatureF,Dew PointF,Humidity,Sea Level PressureIn,VisibilityMPH,Wind Direction,Wind SpeedMPH,Gust SpeedMPH,PrecipitationIn,Events,Conditions,WindDirDegrees,DateUTC
12:53 AM,77.0,68.0,74,29.63,10.0,North,9.2,-,N/A,,Overcast,360,2012-10-26 04:53:00
1:53 AM,73.9,69.1,85,29.61,9.0,North,12.7,28.8,0.01,Rain,Light Rain,10,2012-10-26 05:53:00
2:53 AM,73.0,69.1,87,29.59,10.0,North,9.2,-,0.05,Rain,Light Rain,360,2012-10-26 06:53:00
3:53 AM,73.9,68.0,82,29.56,10.0,North,12.7,19.6,0.01,,Overcast,360,2012-10-26 07:53:00
4:53 AM,72.0,68.0,87,29.57,10.0,North,9.2,-,0.00,,Overcast,350,2012-10-26 08:53:00
5:53 AM,72.0,68.0,87,29.57,10.0,NNW,17.3,23.0,0.02,,Overcast,340,2012-10-26 09:53:00
6:53 AM,71.1,68.0,90,29.57,10.0,NNW,12.7,-,0.02,,Mostly Cloudy,330,2012-10-26 10:53:00
7:53 AM,71.1,68.0,90,29.57,10.0,NW,13.8,-,N/A,,Overcast,320,2012-10-26 11:53:00
8:53 AM,71.6,68.0,88,29.57,9.0,NNW,21.9,29.9,N/A,Rain,Light Rain,340,2012-10-26 12:53:00
9:53 AM,71.1,69.1,93,29.58,10.0,NW,17.3,26.5,0.01,Rain,Light Rain,320,2012-10-26 13:53:00
10:17 AM,69.8,69.8,100,29.59,1.5,NNW,17.3,23.0,N/A,Rain,Rain,330,2012-10-26 14:17:00
10:36 AM,71.6,69.8,94,29.59,5.0,NW,15.0,26.5,N/A,Rain,Light Rain,320,2012-10-26 14:36:00
10:53 AM,72.0,70.0,93,29.58,5.0,NW,19.6,25.3,0.04,Rain,Light Rain,320,2012-10-26 14:53:00
11:03 AM,73.4,71.6,94,29.58,10.0,NW,16.1,28.8,0.00,,Mostly Cloudy,320,2012-10-26 15:03:00
11:53 AM,73.9,70.0,87,29.57,8.0,NW,18.4,26.5,0.01,Rain,Light Rain,320,2012-10-26 15:53:00
12:25 PM,77.0,71.6,83,29.56,10.0,NW,17.3,25.3,0.00,,Overcast,320,2012-10-26 16:25:00
12:53 PM,75.0,71.1,87,29.56,7.0,NNW,16.1,24.2,0.00,Rain,Light Rain,330,2012-10-26 16:53:00
1:29 PM,75.2,69.8,83,29.53,10.0,NNW,18.4,29.9,0.01,,Overcast,340,2012-10-26 17:29:00
1:53 PM,75.9,69.1,79,29.53,10.0,NNW,26.5,38.0,0.01,Rain,Light Rain,330,2012-10-26 17:53:00
2:53 PM,78.1,69.1,74,29.51,10.0,NNW,27.6,38.0,0.00,Rain,Light Rain,330,2012-10-26 18:53:00
3:53 PM,80.1,69.1,69,29.50,10.0,NW,27.6,36.8,0.00,,Overcast,320,2012-10-26 19:53:00
4:53 PM,78.1,69.1,74,29.51,10.0,NW,24.2,31.1,N/A,,Mostly Cloudy,320,2012-10-26 20:53:00
5:53 PM,75.9,68.0,76,29.52,10.0,NW,25.3,38.0,0.00,,Mostly Cloudy,320,2012-10-26 21:53:00
6:53 PM,73.9,66.9,79,29.54,10.0,NW,25.3,34.5,0.00,,Mostly Cloudy,320,2012-10-26 22:53:00
7:53 PM,73.0,66.9,81,29.55,10.0,WNW,24.2,31.1,N/A,,Scattered Clouds,300,2012-10-26 23:53:00
8:53 PM,73.0,66.0,79,29.55,10.0,NW,19.6,28.8,N/A,,Clear,310,2012-10-27 00:53:00
10:53 PM,73.0,66.0,79,29.57,10.0,WNW,19.6,26.5,N/A,,Partly Cloudy,300,2012-10-27 02:53:00
11:17 PM,73.4,66.2,78,29.57,10.0,WNW,17.3,29.9,N/A,,Mostly Cloudy,300,2012-10-27 03:17:00
11:44 PM,71.6,66.2,83,29.57,10.0,NW,19.6,31.1,N/A,,Scattered Clouds,310,2012-10-27 03:44:00
11:53 PM,73.0,66.0,79,29.57,10.0,NW,23.0,28.8,N/A,,Partly Cloudy,310,2012-10-27 03:53:00